CW6573 Weather Reports


time (UTC)temp
F
wind
direction
speed
knots
gust
knots
rain 1hr
in
rain 24hr
in
rain mn
in
humidity
%
barometer
mb
20260505053516 68 9 1.7 7.8 0.00 0.00 0.00 87 1017.0
20260505053059 68 352 2.6 5.2 0.00 0.00 0.00 87 1016.9
20260505052519 68 17 1.7 6.1 0.00 0.00 0.00 87 1016.9
20260505052025 68 31 1.7 6.1 0.00 0.00 0.00 87 1017.1
20260505051609 68 38 1.7 7.0 0.00 0.00 0.00 87 1017.2
20260505051019 69 83 2.6 7.8 0.00 0.00 0.00 87 1017.1
20260505050520 69 352 3.5 7.8 0.00 0.00 0.00 86 1016.9
20260505050113 69 74 1.7 7.0 0.00 0.00 0.00 87 1017.2
20260505041607 68 77 0.9 3.5 0.00 0.00 0.00 85 1017.3
20260505041022 68 87 1.7 5.2 0.00 0.00 0.00 85 1017.2
20260505040526 68 109 1.7 5.2 0.00 0.00 0.00 84 1017.5
20260505040104 68 97 1.7 3.5 0.00 0.00 0.00 84 1017.5
20260505035521 68 72 1.7 5.2 0.00 0.00 0.00 84 1017.3
20260505035021 68 93 2.6 5.2 0.00 0.00 0.00 84 1017.3
20260505034614 68 88 1.7 5.2 0.00 0.00 0.00 85 1017.3
20260505034018 68 113 0.9 5.2 0.00 0.00 0.00 85 1017.3
20260505033518 67 33 0.9 4.3 0.00 0.00 0.00 85 1017.4
20260505033110 67 104 1.7 3.5 0.00 0.00 0.00 85 1017.6
20260505032525 67 85 0.9 3.5 0.00 0.00 0.00 85 1017.6
20260505032018 67 104 0.9 3.5 0.00 0.00 0.00 85 1017.8
20260505031600 67 93 0.9 2.6 0.00 0.00 0.00 85 1017.6
20260505031019 67 105 0.9 2.6 0.00 0.00 0.00 85 1017.6
20260505030520 67 90 0.9 3.5 0.00 0.00 0.00 85 1017.7
20260505030105 67 83 0.9 3.5 0.00 0.00 0.00 84 1017.5
20260505025524 67 79 0.0 2.6 0.00 0.00 0.00 84 1017.4
20260505025024 67 105 0.9 2.6 0.00 0.00 0.00 84 1017.5
20260505024549 67 121 0.0 2.6 0.00 0.00 0.00 83 1017.5
20260505024020 67 96 0.9 2.6 0.00 0.00 0.00 83 1017.4
20260505023519 67 111 0.9 2.6 0.00 0.00 0.00 83 1017.4
20260505023055 68 112 0.0 2.6 0.00 0.00 0.00 82 1017.4
20260505022518 68 98 0.9 2.6 0.00 0.00 0.00 82 1017.5
20260505022027 68 81 0.9 2.6 0.00 0.00 0.00 81 1017.3
20260505021602 69 89 1.7 3.5 0.00 0.00 0.00 81 1017.2
20260505021032 69 78 1.7 3.5 0.00 0.00 0.00 80 1017.1
20260505020520 69 109 0.9 3.5 0.00 0.00 0.00 79 1017.3
20260505020050 70 118 1.7 3.5 0.00 0.00 0.00 79 1017.1
20260505015518 70 117 0.9 3.5 0.00 0.00 0.00 79 1017.3
20260505015018 70 99 1.7 6.1 0.00 0.00 0.00 78 1017.0
20260505014546 70 104 1.7 6.1 0.00 0.00 0.00 78 1017.0
20260505014021 70 61 1.7 5.2 0.00 0.00 0.00 78 1016.9
20260505013520 70 88 1.7 5.2 0.00 0.00 0.00 78 1016.9
20260505013045 70 76 2.6 7.0 0.00 0.00 0.00 77 1017.1
20260505012519 71 73 2.6 7.0 0.00 0.00 0.00 77 1017.0
20260505012021 71 99 2.6 7.0 0.00 0.00 0.00 77 1016.7
20260505011546 71 105 2.6 6.1 0.00 0.00 0.00 77 1017.0
20260505011019 71 93 1.7 7.8 0.00 0.00 0.00 77 1016.8
20260505010517 71 51 1.7 7.8 0.00 0.00 0.00 77 1016.8
20260505010106 71 92 1.7 5.2 0.00 0.00 0.00 77 1016.6
20260505005518 72 85 2.6 5.2 0.00 0.00 0.00 77 1016.6
20260505005019 72 77 1.7 3.5 0.00 0.00 0.00 76 1016.5
20260505004547 72 111 0.9 5.2 0.00 0.00 0.00 75 1016.7
20260505004018 72 98 1.7 5.2 0.00 0.00 0.00 75 1016.8
20260505003521 72 68 1.7 6.1 0.00 0.00 0.00 74 1016.8
20260505003044 73 83 2.6 6.1 0.00 0.00 0.00 74 1016.8
20260505002517 73 82 2.6 7.8 0.00 0.00 0.00 74 1016.5
20260505002018 73 115 2.6 8.7 0.00 0.00 0.00 73 1016.5
20260505001557 73 74 1.7 8.7 0.00 0.00 0.00 73 1016.1
20260505001020 74 85 3.5 8.7 0.00 0.00 0.00 72 1016.2
20260505000730 74 87 4.3 8.7 0.00 0.00 0.00 71 1015.9
20260505000047 74 76 3.5 9.6 0.00 0.00 0.00 71 1015.7
20260504235513 75 125 4.3 9.6 0.00 0.00 0.00 71 1015.8
20260504235015 75 65 3.5 9.6 0.00 0.00 0.00 71 1015.8
20260504234540 75 84 2.6 8.7 0.00 0.00 0.00 71 1015.7
20260504234015 75 90 3.5 9.6 0.00 0.00 0.00 70 1015.6
20260504233515 76 92 1.7 9.6 0.00 0.00 0.00 70 1015.7
20260504233039 76 83 4.3 9.6 0.00 0.00 0.00 69 1015.8
20260504232516 77 42 5.2 12.2 0.00 0.00 0.00 67 1015.6
20260504232013 77 52 5.2 12.2 0.00 0.00 0.00 66 1015.7
20260504231539 78 51 3.5 9.6 0.00 0.00 0.00 66 1015.7
20260504231019 78 55 3.5 8.7 0.00 0.00 0.00 66 1015.6
20260504230515 78 34 3.5 9.6 0.00 0.00 0.00 65 1015.4
20260504230052 78 92 3.5 9.6 0.00 0.00 0.00 64 1015.4
20260504225519 78 105 3.5 12.2 0.00 0.00 0.00 63 1015.4
20260504225013 79 100 6.1 12.2 0.00 0.00 0.00 63 1015.5
20260504224544 79 102 6.1 10.4 0.00 0.00 0.00 63 1015.5
20260504224018 79 68 4.3 8.7 0.00 0.00 0.00 63 1015.6
20260504223515 79 15 2.6 8.7 0.00 0.00 0.00 63 1015.6
20260504223043 79 88 3.5 8.7 0.00 0.00 0.00 62 1015.5
20260504222515 79 74 4.3 10.4 0.00 0.00 0.00 61 1015.5
20260504222014 80 89 6.1 10.4 0.00 0.00 0.00 61 1015.6
20260504221542 81 64 6.1 11.3 0.00 0.00 0.00 60 1015.6
20260504221013 81 35 5.2 11.3 0.00 0.00 0.00 60 1015.6
20260504220517 81 82 5.2 10.4 0.00 0.00 0.00 59 1015.6
20260504220056 81 82 5.2 11.3 0.00 0.00 0.00 58 1015.5
20260504215518 81 96 7.8 11.3 0.00 0.00 0.00 58 1015.4
20260504215014 81 107 4.3 11.3 0.00 0.00 0.00 58 1015.6
20260504214539 81 88 4.3 11.3 0.00 0.00 0.00 59 1015.5
20260504214017 81 103 3.5 8.7 0.00 0.00 0.00 59 1015.5
20260504213516 81 111 6.1 8.7 0.00 0.00 0.00 58 1015.4
20260504213104 82 74 3.5 10.4 0.00 0.00 0.00 58 1015.5
20260504212515 82 96 5.2 10.4 0.00 0.00 0.00 57 1015.5
20260504212017 82 82 4.3 10.4 0.00 0.00 0.00 56 1015.4
20260504211544 82 57 4.3 9.6 0.00 0.00 0.00 58 1015.3
20260504211016 82 70 3.5 9.6 0.00 0.00 0.00 59 1015.6
20260504210515 82 60 5.2 8.7 0.00 0.00 0.00 57 1015.6
20260504210040 81 73 3.5 11.3 0.00 0.00 0.00 60 1015.7
20260504205518 81 44 4.3 12.2 0.00 0.00 0.00 59 1015.6
20260504205014 81 61 6.1 12.2 0.00 0.00 0.00 59 1015.7
20260504204543 81 24 5.2 11.3 0.00 0.00 0.00 58 1015.5
20260504204015 82 113 5.2 10.4 0.00 0.00 0.00 58 1015.5
20260504203516 83 130 3.5 10.4 0.00 0.00 0.00 55 1015.5
20260504203050 83 60 5.2 10.4 0.00 0.00 0.00 56 1015.6
20260504202540 84 347 4.3 9.6 0.00 0.00 0.00 56 1015.7
20260504202016 84 50 4.3 9.6 0.00 0.00 0.00 55 1015.7
20260504201549 84 61 4.3 9.6 0.00 0.00 0.00 55 1015.8
20260504201017 84 352 2.6 10.4 0.00 0.00 0.00 54 1015.8
20260504200515 83 97 4.3 10.4 0.00 0.00 0.00 55 1015.9
20260504200046 83 95 4.3 9.6 0.00 0.00 0.00 55 1016.0
20260504195516 83 62 5.2 9.6 0.00 0.00 0.00 54 1015.9
20260504195018 83 24 4.3 9.6 0.00 0.00 0.00 58 1015.9
20260504194543 82 5 4.3 10.4 0.00 0.00 0.00 57 1016.3
20260504194029 81 352 4.3 10.4 0.00 0.00 0.00 57 1016.2
20260504193518 81 54 4.3 9.6 0.00 0.00 0.00 59 1016.3
20260504193054 81 82 2.6 7.8 0.00 0.00 0.00 59 1016.3
20260504192516 81 46 4.3 8.7 0.00 0.00 0.00 59 1016.3
20260504192014 82 49 4.3 8.7 0.00 0.00 0.00 56 1016.3
20260504191545 82 80 4.3 8.7 0.00 0.00 0.00 55 1016.5
20260504191016 82 67 3.5 10.4 0.00 0.00 0.00 57 1016.5
20260504190518 82 124 3.5 10.4 0.00 0.00 0.00 55 1016.6
20260504190059 82 78 4.3 9.6 0.00 0.00 0.00 57 1016.6
20260504185517 81 51 3.5 8.7 0.00 0.00 0.00 57 1016.9
20260504185020 82 107 2.6 10.4 0.00 0.00 0.00 57 1017.0
20260504184550 82 15 5.2 10.4 0.00 0.00 0.00 57 1017.0
20260504184020 81 28 3.5 8.7 0.00 0.00 0.00 59 1017.0
20260504183516 81 65 2.6 10.4 0.00 0.00 0.00 60 1017.2
20260504183055 81 65 3.5 10.4 0.00 0.00 0.00 58 1017.3
20260504182516 81 352 3.5 8.7 0.00 0.00 0.00 59 1017.3
20260504182018 81 67 3.5 10.4 0.00 0.00 0.00 58 1017.6
20260504181545 82 30 6.1 10.4 0.00 0.00 0.00 56 1017.5
20260504181017 82 57 4.3 8.7 0.00 0.00 0.00 58 1017.5
20260504180518 81 86 3.5 10.4 0.00 0.00 0.00 58 1017.5
20260504180130 81 104 4.3 10.4 0.00 0.00 0.00 57 1017.7
20260504175559 81 69 3.5 11.3 0.00 0.00 0.00 57 1017.7
20260504175024 81 27 6.1 11.3 0.00 0.00 0.00 57 1017.9
20260504174608 81 20 3.5 8.7 0.00 0.00 0.00 57 1018.0
20260504174023 80 42 3.5 10.4 0.00 0.00 0.00 56 1017.9
20260504173526 81 39 3.5 10.4 0.00 0.00 0.00 55 1017.8
20260504173319 81 85 2.6 9.6 0.00 0.00 0.00 54 1018.0
20260504172517 81 30 3.5 9.6 0.00 0.00 0.00 57 1017.9
20260504172021 81 50 2.6 10.4 0.00 0.00 0.00 55 1017.9
20260504171552 81 30 3.5 10.4 0.00 0.00 0.00 56 1017.9
20260504171016 81 56 4.3 12.2 0.00 0.00 0.00 55 1017.8
20260504170517 81 352 3.5 12.2 0.00 0.00 0.00 58 1017.9
20260504170433 80 59 5.2 12.2 0.00 0.00 0.00 55 1018.0
20260504151018 77 62 4.3 13.0 0.00 0.00 0.00 60 1019.0
20260504150515 77 73 7.0 13.0 0.00 0.00 0.00 61 1019.2
20260504141016 75 45 5.2 13.0 0.00 0.00 0.00 70 1018.6
20260504140515 75 19 7.0 13.0 0.00 0.00 0.00 69 1018.7
20260504130517 72 360 3.5 8.7 0.00 0.00 0.00 76 1018.1
20260504120110 67 360 1.7 7.0 0.00 0.00 0.00 84 1017.7
20260504110522 62 305 1.7 3.5 0.00 0.00 0.00 90 1017.3
20260504110108 62 295 1.7 3.5 0.00 0.00 0.00 90 1017.3
20260504100513 63 326 1.7 3.5 0.00 0.00 0.00 89 1016.9
20260504081542 65 337 0.0 1.7 0.00 0.03 0.00 88 1016.7
20260504081015 65 317 0.0 2.6 0.00 0.03 0.00 88 1016.6
20260504080513 65 9 0.0 2.6 0.00 0.03 0.00 88 1016.9